Time,TemperatureF,DewpointF,PressureIn,WindDirection,WindDirectionDegrees,WindSpeedMPH,WindSpeedGustMPH,Humidity,HourlyPrecipIn,Conditions,Clouds,dailyrainin,SoftwareType,DateUTC
2013-01-13 00:03:00,35.0,33.0,29.88,WNW,282,1.0,-999.0,92,-99.99,,,-99.99,,2013-01-13 06:03:00,
2013-01-13 00:12:00,35.0,33.0,29.88,WNW,282,1.0,-999.0,92,-99.99,,,-99.99,,2013-01-13 06:12:00,
2013-01-13 00:22:00,35.0,33.0,29.90,WNW,297,1.0,-999.0,91,-99.99,,,-99.99,,2013-01-13 06:22:00,
2013-01-13 00:32:00,35.0,33.0,29.91,West,281,1.0,-999.0,91,-99.99,,,-99.99,,2013-01-13 06:32:00,
2013-01-13 00:42:00,35.0,33.0,29.91,West,281,1.0,-999.0,91,-99.99,,,-99.99,,2013-01-13 06:42:00,
2013-01-13 00:52:00,35.0,32.0,29.89,WNW,295,2.0,-999.0,90,-99.99,,,-99.99,,2013-01-13 06:52:00,
2013-01-13 01:02:00,35.0,32.0,29.89,NNW,333,2.0,-999.0,89,-99.99,,,-99.99,,2013-01-13 07:02:00,
2013-01-13 01:12:00,35.0,32.0,29.89,NNW,333,2.0,-999.0,89,-99.99,,,-99.99,,2013-01-13 07:12:00,
2013-01-13 01:22:00,35.0,32.0,29.90,NW,316,1.0,-999.0,88,-99.99,,,-99.99,,2013-01-13 07:22:00,
2013-01-13 01:32:00,35.0,32.0,29.91,NW,307,0.0,-999.0,89,-99.99,,,-99.99,,2013-01-13 07:32:00,
2013-01-13 01:42:00,35.0,32.0,29.91,NW,307,0.0,-999.0,89,-99.99,,,-99.99,,2013-01-13 07:42:00,
2013-01-13 01:52:00,35.0,32.0,29.93,NW,306,2.0,-999.0,89,-99.99,,,-99.99,,2013-01-13 07:52:00,
2013-01-13 02:02:00,35.0,32.0,29.93,NNW,340,1.0,-999.0,88,-99.99,,,-99.99,,2013-01-13 08:02:00,
2013-01-13 02:12:00,35.0,32.0,29.93,NNW,340,1.0,-999.0,88,-99.99,,,-99.99,,2013-01-13 08:12:00,
2013-01-13 02:22:00,35.0,32.0,29.92,North,350,1.0,-999.0,87,-99.99,,,-99.99,,2013-01-13 08:22:00,
2013-01-13 02:32:00,35.0,31.0,29.93,WNW,295,2.0,-999.0,86,-99.99,,,-99.99,,2013-01-13 08:32:00,
2013-01-13 02:42:00,35.0,31.0,29.93,WNW,295,2.0,-999.0,86,-99.99,,,-99.99,,2013-01-13 08:42:00,
2013-01-13 02:52:00,35.0,31.0,29.93,WNW,295,2.0,-999.0,86,-99.99,,,-99.99,,2013-01-13 08:52:00,
2013-01-13 03:02:00,35.0,31.0,29.95,WNW,288,3.0,-999.0,85,-99.99,,,-99.99,,2013-01-13 09:02:00,
2013-01-13 03:12:00,35.0,31.0,29.95,WNW,290,1.0,-999.0,85,-99.99,,,-99.99,,2013-01-13 09:12:00,
2013-01-13 03:22:00,35.0,31.0,29.95,WNW,290,1.0,-999.0,85,-99.99,,,-99.99,,2013-01-13 09:22:00,
2013-01-13 03:32:00,35.0,31.0,29.96,WNW,295,1.0,-999.0,86,-99.99,,,-99.99,,2013-01-13 09:32:00,
2013-01-13 03:42:00,35.0,31.0,29.96,WNW,295,1.0,-999.0,86,-99.99,,,-99.99,,2013-01-13 09:42:00,
2013-01-13 03:52:00,35.0,31.0,29.96,WNW,302,1.0,-999.0,85,-99.99,,,-99.99,,2013-01-13 09:52:00,
2013-01-13 04:02:00,35.0,31.0,29.96,WNW,289,2.0,-999.0,85,-99.99,,,-99.99,,2013-01-13 10:02:00,
2013-01-13 04:12:00,35.0,31.0,29.96,WNW,289,2.0,-999.0,85,-99.99,,,-99.99,,2013-01-13 10:12:00,
2013-01-13 04:22:00,35.0,31.0,29.97,North,11,0.0,-999.0,84,-99.99,,,-99.99,,2013-01-13 10:22:00,
2013-01-13 04:32:00,35.0,31.0,29.96,North,360,0.0,-999.0,85,-99.99,,,-99.99,,2013-01-13 10:32:00,
2013-01-13 04:42:00,35.0,31.0,29.96,North,360,0.0,-999.0,85,-99.99,,,-99.99,,2013-01-13 10:42:00,
2013-01-13 04:52:00,35.0,31.0,29.96,WNW,300,3.0,-999.0,84,-99.99,,,-99.99,,2013-01-13 10:52:00,
2013-01-13 05:02:00,35.0,30.0,29.97,NW,311,4.0,-999.0,83,-99.99,,,-99.99,,2013-01-13 11:02:00,
2013-01-13 05:12:00,35.0,30.0,29.97,NW,311,4.0,-999.0,83,-99.99,,,-99.99,,2013-01-13 11:12:00,
2013-01-13 05:22:00,34.0,30.0,29.98,NW,304,1.0,-999.0,85,-99.99,,,-99.99,,2013-01-13 11:22:00,
2013-01-13 05:32:00,34.0,30.0,29.98,WNW,303,2.0,-999.0,85,-99.99,,,-99.99,,2013-01-13 11:32:00,
2013-01-13 05:42:00,34.0,30.0,29.98,WNW,303,2.0,-999.0,85,-99.99,,,-99.99,,2013-01-13 11:42:00,
2013-01-13 05:52:00,34.0,30.0,30.00,WNW,282,2.0,-999.0,85,-99.99,,,-99.99,,2013-01-13 11:52:00,
2013-01-13 06:03:00,33.0,29.0,30.01,NW,321,3.0,-999.0,85,-99.99,,,-99.99,,2013-01-13 12:03:00,
2013-01-13 06:12:00,33.0,29.0,30.01,NW,321,3.0,-999.0,85,-99.99,,,-99.99,,2013-01-13 12:12:00,
2013-01-13 06:22:00,32.0,28.0,30.01,NW,307,4.0,-999.0,85,-99.99,,,-99.99,,2013-01-13 12:22:00,
2013-01-13 06:32:00,32.0,28.0,30.05,WNW,292,2.0,-999.0,85,-99.99,,,-99.99,,2013-01-13 12:32:00,
2013-01-13 06:42:00,32.0,28.0,30.05,WNW,292,2.0,-999.0,85,-99.99,,,-99.99,,2013-01-13 12:42:00,
2013-01-13 06:52:00,32.0,28.0,30.04,WNW,292,2.0,-999.0,85,-99.99,,,-99.99,,2013-01-13 12:52:00,
2013-01-13 07:02:00,32.0,28.0,30.07,NW,310,2.0,-999.0,85,-99.99,,,-99.99,,2013-01-13 13:02:00,
2013-01-13 07:12:00,32.0,28.0,30.07,NW,310,2.0,-999.0,85,-99.99,,,-99.99,,2013-01-13 13:12:00,
2013-01-13 07:22:00,31.0,27.0,30.08,WNW,300,2.0,-999.0,84,-99.99,,,-99.99,,2013-01-13 13:22:00,
2013-01-13 07:33:00,31.0,27.0,30.03,WNW,291,3.0,-999.0,85,-99.99,,,-99.99,,2013-01-13 13:33:00,
2013-01-13 07:42:00,31.0,27.0,30.03,WNW,291,3.0,-999.0,85,-99.99,,,-99.99,,2013-01-13 13:42:00,
2013-01-13 07:53:00,31.0,27.0,30.04,NW,311,1.0,-999.0,85,-99.99,,,-99.99,,2013-01-13 13:53:00,
2013-01-13 08:03:00,30.0,26.0,30.02,NW,310,2.0,-999.0,84,-99.99,,,-99.99,,2013-01-13 14:03:00,
2013-01-13 08:12:00,30.0,26.0,30.02,NW,310,2.0,-999.0,84,-99.99,,,-99.99,,2013-01-13 14:12:00,
2013-01-13 08:22:00,30.0,25.0,30.04,West,272,3.0,-999.0,83,-99.99,,,-99.99,,2013-01-13 14:22:00,
2013-01-13 08:33:00,30.0,25.0,30.06,West,265,1.0,-999.0,83,-99.99,,,-99.99,,2013-01-13 14:33:00,
2013-01-13 08:43:00,30.0,25.0,30.06,West,265,1.0,-999.0,83,-99.99,,,-99.99,,2013-01-13 14:43:00,
2013-01-13 08:52:00,30.0,25.0,30.06,West,265,1.0,-999.0,83,-99.99,,,-99.99,,2013-01-13 14:52:00,
2013-01-13 09:03:00,30.0,25.0,30.09,NW,309,2.0,-999.0,81,-99.99,,,-99.99,,2013-01-13 15:03:00,
2013-01-13 09:12:00,30.0,25.0,30.09,NW,309,2.0,-999.0,81,-99.99,,,-99.99,,2013-01-13 15:12:00,
2013-01-13 09:23:00,30.0,25.0,30.10,WNW,303,1.0,-999.0,82,-99.99,,,-99.99,,2013-01-13 15:23:00,
2013-01-13 09:33:00,30.0,25.0,30.12,NW,305,2.0,-999.0,82,-99.99,,,-99.99,,2013-01-13 15:33:00,
2013-01-13 09:43:00,30.0,25.0,30.12,NW,305,2.0,-999.0,82,-99.99,,,-99.99,,2013-01-13 15:43:00,
2013-01-13 09:52:00,30.0,25.0,30.14,WNW,298,3.0,-999.0,82,-99.99,,,-99.99,,2013-01-13 15:52:00,
2013-01-13 10:03:00,30.0,25.0,30.11,WNW,296,2.0,-999.0,83,-99.99,,,-99.99,,2013-01-13 16:03:00,
2013-01-13 10:12:00,30.0,25.0,30.11,WNW,296,2.0,-999.0,83,-99.99,,,-99.99,,2013-01-13 16:12:00,
2013-01-13 10:23:00,29.0,24.0,30.10,WNW,298,2.0,-999.0,82,-99.99,,,-99.99,,2013-01-13 16:23:00,
2013-01-13 10:33:00,29.0,23.0,30.12,West,261,5.0,-999.0,79,-99.99,,,-99.99,,2013-01-13 16:33:00,
2013-01-13 10:43:00,29.0,23.0,30.12,West,261,5.0,-999.0,79,-99.99,,,-99.99,,2013-01-13 16:43:00,
2013-01-13 10:52:00,28.0,23.0,30.11,NNW,342,4.0,-999.0,80,-99.99,,,-99.99,,2013-01-13 16:52:00,
2013-01-13 11:03:00,29.0,24.0,30.14,WNW,290,3.0,-999.0,82,-99.99,,,-99.99,,2013-01-13 17:03:00,
2013-01-13 11:12:00,29.0,24.0,30.14,WNW,290,3.0,-999.0,82,-99.99,,,-99.99,,2013-01-13 17:12:00,
2013-01-13 11:22:00,28.0,22.0,30.12,WNW,291,5.0,-999.0,78,-99.99,,,-99.99,,2013-01-13 17:22:00,
2013-01-13 11:33:00,29.0,23.0,30.12,WNW,295,3.0,-999.0,79,-99.99,,,-99.99,,2013-01-13 17:33:00,
2013-01-13 11:42:00,29.0,23.0,30.12,WNW,295,3.0,-999.0,79,-99.99,,,-99.99,,2013-01-13 17:42:00,
2013-01-13 11:53:00,29.0,23.0,30.11,West,277,4.0,-999.0,78,-99.99,,,-99.99,,2013-01-13 17:53:00,
2013-01-13 12:03:00,29.0,23.0,30.13,NW,320,3.0,-999.0,77,-99.99,,,-99.99,,2013-01-13 18:03:00,
2013-01-13 12:12:00,29.0,23.0,30.13,NW,320,3.0,-999.0,77,-99.99,,,-99.99,,2013-01-13 18:12:00,
2013-01-13 12:23:00,29.0,23.0,30.13,NNW,341,5.0,-999.0,78,-99.99,,,-99.99,,2013-01-13 18:23:00,
2013-01-13 12:33:00,29.0,23.0,30.12,WNW,300,3.0,-999.0,79,-99.99,,,-99.99,,2013-01-13 18:33:00,
2013-01-13 12:43:00,29.0,23.0,30.12,WNW,300,3.0,-999.0,79,-99.99,,,-99.99,,2013-01-13 18:43:00,
2013-01-13 12:53:00,29.0,22.0,30.12,NW,313,4.0,-999.0,76,-99.99,,,-99.99,,2013-01-13 18:53:00,
2013-01-13 13:03:00,29.0,23.0,30.12,West,274,5.0,-999.0,77,-99.99,,,-99.99,,2013-01-13 19:03:00,
2013-01-13 13:12:00,29.0,23.0,30.12,West,274,5.0,-999.0,77,-99.99,,,-99.99,,2013-01-13 19:12:00,
2013-01-13 13:22:00,30.0,24.0,30.12,WNW,286,4.0,-999.0,78,-99.99,,,-99.99,,2013-01-13 19:22:00,
2013-01-13 13:33:00,31.0,24.0,30.13,NW,310,4.0,-999.0,75,-99.99,,,-99.99,,2013-01-13 19:33:00,
2013-01-13 13:43:00,31.0,24.0,30.13,NW,310,4.0,-999.0,75,-99.99,,,-99.99,,2013-01-13 19:43:00,
2013-01-13 13:52:00,31.0,24.0,30.14,WNW,299,5.0,-999.0,76,-99.99,,,-99.99,,2013-01-13 19:52:00,
2013-01-13 14:03:00,32.0,25.0,30.14,NW,311,5.0,-999.0,76,-99.99,,,-99.99,,2013-01-13 20:03:00,
2013-01-13 14:12:00,32.0,25.0,30.14,NW,311,5.0,-999.0,76,-99.99,,,-99.99,,2013-01-13 20:12:00,
2013-01-13 14:22:00,32.0,25.0,30.15,West,272,5.0,-999.0,74,-99.99,,,-99.99,,2013-01-13 20:22:00,
2013-01-13 14:33:00,33.0,24.0,30.15,WNW,298,5.0,-999.0,70,-99.99,,,-99.99,,2013-01-13 20:33:00,
2013-01-13 14:43:00,33.0,24.0,30.15,WNW,298,5.0,-999.0,70,-99.99,,,-99.99,,2013-01-13 20:43:00,
2013-01-13 14:53:00,33.0,24.0,30.16,WNW,295,6.0,-999.0,70,-99.99,,,-99.99,,2013-01-13 20:53:00,
2013-01-13 15:03:00,33.0,24.0,30.17,WSW,247,7.0,-999.0,68,-99.99,,,-99.99,,2013-01-13 21:03:00,
2013-01-13 15:12:00,33.0,24.0,30.17,WSW,247,7.0,-999.0,68,-99.99,,,-99.99,,2013-01-13 21:12:00,
2013-01-13 15:23:00,34.0,24.0,30.17,NNW,346,6.0,-999.0,67,-99.99,,,-99.99,,2013-01-13 21:23:00,
2013-01-13 15:33:00,34.0,24.0,30.19,NW,322,5.0,-999.0,66,-99.99,,,-99.99,,2013-01-13 21:33:00,
2013-01-13 15:43:00,34.0,24.0,30.19,NW,322,5.0,-999.0,66,-99.99,,,-99.99,,2013-01-13 21:43:00,
2013-01-13 15:52:00,33.0,23.0,30.19,West,281,7.0,-999.0,66,-99.99,,,-99.99,,2013-01-13 21:52:00,
2013-01-13 16:02:00,33.0,23.0,30.21,WNW,290,4.0,-999.0,65,-99.99,,,-99.99,,2013-01-13 22:02:00,
2013-01-13 16:12:00,33.0,23.0,30.21,WNW,290,4.0,-999.0,65,-99.99,,,-99.99,,2013-01-13 22:12:00,
2013-01-13 16:22:00,33.0,22.0,30.22,WNW,300,6.0,-999.0,63,-99.99,,,-99.99,,2013-01-13 22:22:00,
2013-01-13 16:33:00,33.0,22.0,30.22,WNW,300,6.0,-999.0,63,-99.99,,,-99.99,,2013-01-13 22:33:00,
2013-01-13 16:43:00,33.0,22.0,30.22,WNW,300,6.0,-999.0,63,-99.99,,,-99.99,,2013-01-13 22:43:00,
2013-01-13 16:52:00,32.0,22.0,30.22,WNW,287,3.0,-999.0,65,-99.99,,,-99.99,,2013-01-13 22:52:00,
2013-01-13 17:02:00,31.0,21.0,30.22,WNW,298,3.0,-999.0,66,-99.99,,,-99.99,,2013-01-13 23:02:00,
2013-01-13 17:12:00,31.0,21.0,30.22,WNW,298,3.0,-999.0,66,-99.99,,,-99.99,,2013-01-13 23:12:00,
2013-01-13 17:22:00,30.0,20.0,30.22,WNW,302,3.0,-999.0,66,-99.99,,,-99.99,,2013-01-13 23:22:00,
2013-01-13 17:33:00,30.0,21.0,30.23,NW,313,2.0,-999.0,68,-99.99,,,-99.99,,2013-01-13 23:33:00,
2013-01-13 17:42:00,30.0,21.0,30.23,NW,313,2.0,-999.0,68,-99.99,,,-99.99,,2013-01-13 23:42:00,
2013-01-13 17:52:00,29.0,20.0,30.24,WNW,297,2.0,-999.0,69,-99.99,,,-99.99,,2013-01-13 23:52:00,
2013-01-13 18:03:00,29.0,20.0,30.24,WNW,292,1.0,-999.0,69,-99.99,,,-99.99,,2013-01-14 00:03:00,
2013-01-13 18:12:00,29.0,20.0,30.24,WNW,292,1.0,-999.0,69,-99.99,,,-99.99,,2013-01-14 00:12:00,
2013-01-13 18:22:00,28.0,19.0,30.24,WNW,286,1.0,-999.0,69,-99.99,,,-99.99,,2013-01-14 00:22:00,
2013-01-13 18:33:00,28.0,20.0,30.25,WNW,297,0.0,-999.0,70,-99.99,,,-99.99,,2013-01-14 00:33:00,
2013-01-13 18:43:00,28.0,20.0,30.25,WNW,297,0.0,-999.0,70,-99.99,,,-99.99,,2013-01-14 00:43:00,
2013-01-13 18:52:00,27.0,19.0,30.26,WNW,298,1.0,-999.0,71,-99.99,,,-99.99,,2013-01-14 00:52:00,
2013-01-13 19:03:00,27.0,19.0,30.27,WNW,299,1.0,-999.0,72,-99.99,,,-99.99,,2013-01-14 01:03:00,
2013-01-13 19:12:00,27.0,19.0,30.27,WNW,299,1.0,-999.0,72,-99.99,,,-99.99,,2013-01-14 01:12:00,
2013-01-13 19:22:00,27.0,20.0,30.27,WNW,300,1.0,-999.0,73,-99.99,,,-99.99,,2013-01-14 01:22:00,
2013-01-13 19:32:00,26.0,19.0,30.27,WNW,292,0.0,-999.0,73,-99.99,,,-99.99,,2013-01-14 01:32:00,
2013-01-13 19:42:00,26.0,19.0,30.27,WNW,292,0.0,-999.0,73,-99.99,,,-99.99,,2013-01-14 01:42:00,
2013-01-13 19:52:00,26.0,19.0,30.27,WNW,292,0.0,-999.0,74,-99.99,,,-99.99,,2013-01-14 01:52:00,
2013-01-13 20:02:00,26.0,19.0,30.28,WNW,292,0.0,-999.0,75,-99.99,,,-99.99,,2013-01-14 02:02:00,
2013-01-13 20:12:00,25.0,19.0,30.28,WNW,292,1.0,-999.0,76,-99.99,,,-99.99,,2013-01-14 02:12:00,
2013-01-13 20:22:00,25.0,19.0,30.28,WNW,292,1.0,-999.0,76,-99.99,,,-99.99,,2013-01-14 02:22:00,
2013-01-13 20:32:00,25.0,19.0,30.28,WNW,292,0.0,-999.0,77,-99.99,,,-99.99,,2013-01-14 02:32:00,
2013-01-13 20:42:00,25.0,19.0,30.28,WNW,292,0.0,-999.0,77,-99.99,,,-99.99,,2013-01-14 02:42:00,
2013-01-13 20:53:00,24.0,18.0,30.28,WNW,292,0.0,-999.0,79,-99.99,,,-99.99,,2013-01-14 02:53:00,
2013-01-13 21:02:00,23.0,18.0,30.29,WNW,292,0.0,-999.0,82,-99.99,,,-99.99,,2013-01-14 03:02:00,
2013-01-13 21:12:00,23.0,18.0,30.29,WNW,292,0.0,-999.0,82,-99.99,,,-99.99,,2013-01-14 03:12:00,
2013-01-13 21:22:00,23.0,19.0,30.29,WNW,292,0.0,-999.0,84,-99.99,,,-99.99,,2013-01-14 03:22:00,
2013-01-13 21:32:00,22.0,18.0,30.30,WNW,292,0.0,-999.0,84,-99.99,,,-99.99,,2013-01-14 03:32:00,
2013-01-13 21:42:00,22.0,18.0,30.30,WNW,292,0.0,-999.0,84,-99.99,,,-99.99,,2013-01-14 03:42:00,
2013-01-13 21:52:00,22.0,18.0,30.31,WNW,292,0.0,-999.0,86,-99.99,,,-99.99,,2013-01-14 03:52:00,
2013-01-13 22:02:00,22.0,18.0,30.33,WNW,292,0.0,-999.0,86,-99.99,,,-99.99,,2013-01-14 04:02:00,
2013-01-13 22:12:00,22.0,18.0,30.33,WNW,292,0.0,-999.0,86,-99.99,,,-99.99,,2013-01-14 04:12:00,
2013-01-13 22:22:00,22.0,18.0,30.34,WNW,292,0.0,-999.0,86,-99.99,,,-99.99,,2013-01-14 04:22:00,
2013-01-13 22:32:00,21.0,18.0,30.34,WNW,292,0.0,-999.0,87,-99.99,,,-99.99,,2013-01-14 04:32:00,
2013-01-13 22:42:00,21.0,18.0,30.34,WNW,292,0.0,-999.0,87,-99.99,,,-99.99,,2013-01-14 04:42:00,
2013-01-13 22:52:00,21.0,18.0,30.35,WNW,292,0.0,-999.0,88,-99.99,,,-99.99,,2013-01-14 04:52:00,
2013-01-13 23:04:00,21.0,18.0,30.35,WNW,292,0.0,-999.0,88,-99.99,,,-99.99,,2013-01-14 05:04:00,
2013-01-13 23:12:00,21.0,18.0,30.35,WNW,292,0.0,-999.0,88,-99.99,,,-99.99,,2013-01-14 05:12:00,
2013-01-13 23:22:00,20.0,17.0,30.36,WNW,292,0.0,-999.0,89,-99.99,,,-99.99,,2013-01-14 05:22:00,
2013-01-13 23:32:00,20.0,17.0,30.36,WNW,292,0.0,-999.0,88,-99.99,,,-99.99,,2013-01-14 05:32:00,
2013-01-13 23:42:00,20.0,17.0,30.36,WNW,292,0.0,-999.0,88,-99.99,,,-99.99,,2013-01-14 05:42:00,
2013-01-13 23:52:00,20.0,17.0,30.36,WNW,292,0.0,-999.0,89,-99.99,,,-99.99,,2013-01-14 05:52:00,